Retour au catalogue

SL-16 DEB

ActifLEO
NORAD 39712·DEBRIS·🇷🇺 Russia

Lancé Dec 25, 1992 depuis Baikonur Cosmodrome

Loading…

Prochains Passages (prochaines 24 heures)

TLE

PériméSource: Space-Track

Époque: Aug 30, 2026, 22:53 UTC

1 39712U 92093KC  26242.95352934  .00000564  00000-0  30657-3 0  9990
2 39712  71.1280 331.5246 0090015 328.8545  30.7260 14.14445234106734

Suivez SL-16 DEB en temps réel avec AllMySat

Download on the App Store